TimeCDT,TemperatureF,Dew PointF,Humidity,Sea Level PressureIn,VisibilityMPH,Wind Direction,Wind SpeedMPH,Gust SpeedMPH,PrecipitationIn,Events,Conditions,WindDirDegrees,DateUTC
12:12 AM,32.0,28.4,87,29.49,1.2,NW,20.7,29.9,0.00,Snow,Light Snow,320,2013-04-19 05:12:00
12:17 AM,32.0,28.4,87,29.49,1.5,NW,21.9,29.9,0.00,Snow,Light Snow,320,2013-04-19 05:17:00
12:25 AM,32.0,28.4,87,29.48,1.2,NW,21.9,29.9,0.00,Snow,Light Snow,320,2013-04-19 05:25:00
12:27 AM,32.0,28.4,87,29.48,1.0,NW,25.3,29.9,0.00,Snow,Light Snow,320,2013-04-19 05:27:00
12:44 AM,32.0,28.4,87,29.49,1.2,NW,21.9,31.1,0.00,Snow,Light Snow,320,2013-04-19 05:44:00
12:46 AM,32.0,28.4,87,29.48,1.5,NW,23.0,31.1,0.00,Snow,Light Snow,320,2013-04-19 05:46:00
12:53 AM,32.0,28.9,88,29.50,1.8,NW,21.9,29.9,0.00,Snow,Light Snow,320,2013-04-19 05:53:00
1:12 AM,32.0,28.4,87,29.48,1.2,NW,24.2,32.2,0.00,Snow,Light Snow,320,2013-04-19 06:12:00
1:28 AM,32.0,28.4,87,29.48,1.8,NW,20.7,-,0.00,Snow,Light Snow,320,2013-04-19 06:28:00
1:38 AM,32.0,28.4,87,29.48,2.5,NW,19.6,-,0.00,Snow,Light Snow,320,2013-04-19 06:38:00
1:53 AM,32.0,28.9,88,29.49,2.0,NW,20.7,-,0.00,Snow,Light Snow,320,2013-04-19 06:53:00
2:01 AM,32.0,28.4,87,29.47,1.5,NW,19.6,-,0.00,Snow,Light Snow,310,2013-04-19 07:01:00
2:47 AM,32.0,28.4,87,29.47,1.2,NW,17.3,24.2,0.00,Snow,Light Snow,310,2013-04-19 07:47:00
2:53 AM,32.0,28.9,88,29.49,1.5,NW,17.3,24.2,0.00,Snow,Light Snow,310,2013-04-19 07:53:00
3:02 AM,32.0,28.4,87,29.48,2.0,NW,19.6,-,0.00,Snow,Light Snow,310,2013-04-19 08:02:00
3:29 AM,32.0,28.4,87,29.48,3.0,NW,19.6,-,0.00,Snow,Light Snow,310,2013-04-19 08:29:00
3:45 AM,30.2,28.4,93,29.48,1.8,NW,19.6,-,0.00,Snow,Light Snow,320,2013-04-19 08:45:00
3:53 AM,30.9,28.0,89,29.50,1.8,NW,18.4,28.8,0.00,Snow,Light Snow,320,2013-04-19 08:53:00
4:07 AM,30.2,28.4,93,29.49,2.5,NW,19.6,-,0.00,Snow,Light Snow,320,2013-04-19 09:07:00
4:42 AM,30.2,28.4,93,29.50,1.5,NW,18.4,-,0.00,Snow,Light Snow,310,2013-04-19 09:42:00
4:53 AM,30.9,28.0,89,29.52,1.8,NW,16.1,-,0.00,Snow,Light Snow,310,2013-04-19 09:53:00
4:58 AM,30.2,28.4,93,29.50,2.0,NW,19.6,-,0.00,Snow,Light Snow,310,2013-04-19 09:58:00
5:25 AM,30.2,28.4,93,29.51,3.0,NW,21.9,-,0.00,Snow,Light Snow,320,2013-04-19 10:25:00
5:53 AM,30.9,27.0,85,29.53,3.0,NW,17.3,27.6,0.00,Snow,Light Snow,320,2013-04-19 10:53:00
6:08 AM,30.2,26.6,86,29.52,4.0,NW,19.6,28.8,0.00,Snow,Light Snow,320,2013-04-19 11:08:00
6:17 AM,30.2,26.6,86,29.53,2.5,NW,18.4,32.2,0.00,Snow,Light Snow,320,2013-04-19 11:17:00
6:33 AM,30.2,26.6,86,29.54,1.8,NW,19.6,-,0.00,Snow,Light Snow,320,2013-04-19 11:33:00
6:41 AM,30.2,26.6,86,29.54,3.0,NW,19.6,-,0.00,Snow,Light Snow,320,2013-04-19 11:41:00
6:53 AM,30.9,26.1,82,29.56,3.0,NW,20.7,28.8,0.00,Snow,Light Snow,320,2013-04-19 11:53:00
7:02 AM,30.2,26.6,86,29.55,2.0,NNW,20.7,27.6,0.00,Snow,Light Snow,330,2013-04-19 12:02:00
7:11 AM,30.2,26.6,86,29.55,3.0,NW,17.3,-,0.00,Snow,Light Snow,320,2013-04-19 12:11:00
7:35 AM,30.2,24.8,80,29.56,8.0,NW,20.7,-,0.00,,Overcast,320,2013-04-19 12:35:00
7:53 AM,30.9,25.0,79,29.58,9.0,NW,24.2,29.9,0.00,,Overcast,320,2013-04-19 12:53:00
8:06 AM,30.2,24.8,80,29.57,9.0,NW,20.7,27.6,0.00,,Overcast,320,2013-04-19 13:06:00
8:38 AM,30.2,24.8,80,29.57,5.0,NW,21.9,-,0.00,Snow,Light Snow,320,2013-04-19 13:38:00
8:43 AM,30.2,24.8,80,29.58,2.5,NW,24.2,28.8,0.00,Snow,Light Snow,320,2013-04-19 13:43:00
8:53 AM,30.0,25.0,82,29.60,2.0,NW,23.0,-,0.00,Snow,Light Snow,320,2013-04-19 13:53:00
9:28 AM,30.2,26.6,86,29.59,2.0,NW,18.4,-,0.00,Snow,Light Snow,320,2013-04-19 14:28:00
9:34 AM,30.2,24.8,80,29.59,1.8,NW,20.7,-,N/A,Snow,Light Snow,310,2013-04-19 14:34:00
9:53 AM,30.9,25.0,79,29.62,2.0,NW,18.4,-,0.00,Snow,Light Snow,320,2013-04-19 14:53:00
10:01 AM,30.2,24.8,80,29.61,1.5,NNW,16.1,24.2,0.00,Snow,Light Snow,330,2013-04-19 15:01:00
10:14 AM,30.2,24.8,80,29.61,2.0,NNW,23.0,33.4,0.00,Snow,Light Snow,330,2013-04-19 15:14:00
10:23 AM,30.2,24.8,80,29.62,6.0,NNW,20.7,31.1,0.00,Snow,Light Snow,330,2013-04-19 15:23:00
10:43 AM,30.2,24.8,80,29.63,1.8,NNW,13.8,27.6,0.00,Snow,Light Snow,330,2013-04-19 15:43:00
10:50 AM,30.2,24.8,80,29.63,2.0,NNW,21.9,32.2,0.00,Snow,Light Snow,340,2013-04-19 15:50:00
10:53 AM,30.9,24.1,76,29.65,2.5,NNW,15.0,32.2,0.00,Snow,Light Snow,340,2013-04-19 15:53:00
11:02 AM,32.0,24.8,75,29.63,6.0,NNW,17.3,-,0.00,Snow,Light Snow,330,2013-04-19 16:02:00
11:53 AM,32.0,24.1,73,29.68,4.0,NNW,20.7,26.5,0.00,Snow,Light Snow,330,2013-04-19 16:53:00
12:14 PM,30.2,24.8,80,29.67,1.8,NW,21.9,29.9,0.00,Snow,Light Snow,320,2013-04-19 17:14:00
12:17 PM,30.2,24.8,80,29.67,1.2,NW,21.9,29.9,0.00,Snow,Light Snow,320,2013-04-19 17:17:00
12:23 PM,30.2,24.8,80,29.68,1.5,NW,19.6,28.8,0.00,Snow,Light Snow,320,2013-04-19 17:23:00
12:27 PM,32.0,24.8,75,29.68,3.0,NNW,16.1,26.5,0.00,Snow,Light Snow,330,2013-04-19 17:27:00
12:53 PM,34.0,21.9,61,29.70,10.0,NNW,18.4,32.2,0.00,Rain,Light Rain,340,2013-04-19 17:53:00
1:53 PM,35.1,21.0,57,29.72,10.0,NNW,26.5,35.7,0.00,,Mostly Cloudy,330,2013-04-19 18:53:00
2:53 PM,37.0,19.9,50,29.74,10.0,NNW,23.0,33.4,0.00,,Mostly Cloudy,330,2013-04-19 19:53:00
3:53 PM,36.0,19.9,52,29.77,10.0,NNW,25.3,39.1,0.00,,Mostly Cloudy,330,2013-04-19 20:53:00
4:53 PM,36.0,19.9,52,29.81,10.0,NW,23.0,33.4,N/A,,Overcast,320,2013-04-19 21:53:00
5:53 PM,37.0,18.0,46,29.84,10.0,NNW,21.9,33.4,N/A,,Partly Cloudy,330,2013-04-19 22:53:00
6:53 PM,36.0,21.0,55,29.88,10.0,NW,15.0,-,N/A,,Overcast,310,2013-04-19 23:53:00
7:53 PM,35.1,21.0,57,29.91,10.0,NW,11.5,-,N/A,,Partly Cloudy,320,2013-04-20 00:53:00
8:53 PM,33.1,19.9,59,29.94,10.0,NW,5.8,-,N/A,,Clear,320,2013-04-20 01:53:00
9:53 PM,32.0,17.1,54,29.97,10.0,NW,8.1,-,N/A,,Clear,320,2013-04-20 02:53:00
10:53 PM,30.9,16.0,54,29.99,10.0,NW,8.1,-,N/A,,Clear,310,2013-04-20 03:53:00
11:53 PM,28.9,15.1,56,30.01,10.0,WNW,8.1,-,N/A,,Clear,300,2013-04-20 04:53:00